Terug naar catalogus

STARLINK-5417

ActiefCommunicatieVLEO
NORAD 54805·PAYLOAD·🇺🇸 United States

Gelanceerd Dec 17, 2022 vanaf Cape Canaveral Space Force Station

Loading…

Volgende Passages (komende 24 uur)

TLE

VersSource: CelesTrak SupGP

Epoch: Sep 14, 2026, 20:42 UTC

1 54805C 22175AZ  26257.86298611  .00044621  00000+0  28619-2 0  2573
2 54805  53.1575 259.8720 0001254  70.6185 260.7825 15.07988084    13

Volg STARLINK-5417 in realtime met AllMySat

Download on the App Store